Location: Cz?stochówka
(50.8142°N, 19.0915°E)
Time: 07:12:25
(UTC+00:00)

Cosmos 921 Rocket - Pass Details

Date: 13 January 2026
Orbit: 564 x 620 km, 75.8° (Epoch: 10 February)

Event Time Altitude Azimuth Distance (km) Brightness Sun altitude
Rises 04:32:56 0° 187° (S) 2,840 6.5 -19.5°
Reaches altitude 10° 04:35:12 10° 183° (S) 1,933 5.7 -19.1°
Maximum altitude 04:39:24 54° 106° (ESE) 719 3.7 -18.5°
Drops below altitude 10° 04:43:33 10° 29° (NNE) 1,914 5.8 -17.8°
Sets 04:45:47 0° 25° (NNE) 2,809 6.6 -17.5°
